Regional Weather Roundup
Issued by NWS Goodland, KS

Home | Current Version | Previous Version | Graphics & Text | Print | Product List | Glossary On
Versions: 1 2 3 4 5 6 7 8 9 10 11 12 13 14 15 16 17 18 19 20 21 22 23 24 25 26 27 28 29 30 31 32 33 34 35 36 37 38 39 40 41 42 43 44 45 46 47 48 49 50
000
ASUS43 KGLD 211108
RWRGLD

GOODLAND FORECAST AREA HOURLY WEATHER ROUNDUP
NATIONAL WEATHER SERVICE GOODLAND KS
500 AM MDT FRI JUL 21 2017

...OFFICIAL OBSERVATIONS...

CITY           SKY/WX    TMP DP  RH WIND       PRES   REMARKS
GOODLAND KS    CLEAR     74  55  51 SW9       29.94S
HILL CITY KS   CLEAR     78  59  51 S9        29.88F
IMPERIAL NEB   CLEAR     72  66  81 NW3       29.91R
MCCOOK NEB     CLEAR     72  60  66 SW10      29.86R
AKRON CO       CLEAR     66  54  65 NW12      30.04S
BURLINGTON CO  CLEAR     63  58  83 W9        29.99R
LIMON CO       CLEAR     63  55  75 N12       30.11R
$$

...UNOFFICIAL OBSERVATIONS...

CITY           SKY/WX    TMP DP  RH WIND       PRES   REMARKS
LENORA KS        N/A     74  32  21 MISG        N/A
NORTON KS      CLEAR     70  54  56 S6        29.87S
SHARON SPRINGS   N/A     67  57  70 SW9         N/A
TRENTON NEB      N/A     70  32  24 W6          N/A
KIT CARSON CO    N/A     63  57  80 MISG        N/A
YUMA CO        FAIR      68  50  52 NW8       29.99S
$$



USA.gov is the U.S. government's official web portal to all federal, state and local government web resources and services.